Location: Enid
(36.3960°N, 97.8780°W)
Time: 15:38:13
(UTC-05:00)

HST - Visible Passes

Search period start: 25 October 2014 00:00
Search period end: 03 November 2014 23:00
Orbit: 546 x 550 km, 28.5° (Epoch: 24 October)

Date Brightness Start Highest point End Pass type
(mag) Time Alt. Az. Time Alt. Az. Time Alt. Az.
25 Oct 2.9 19:46:43 10° SSW 19:49:00 14° SSE 19:50:43 12° SE visible
26 Oct 2.8 19:38:51 10° SSW 19:41:36 17° SSE 19:43:54 12° SE visible
26 Oct 3.6 21:18:56 10° SW 21:19:27 13° SW 21:19:27 13° SW visible
27 Oct 2.7 19:31:08 10° SW 19:34:13 20° SSE 19:37:03 11° ESE visible
27 Oct 3.4 21:11:33 10° WSW 21:12:36 16° SW 21:12:36 16° SW visible
28 Oct 2.5 19:23:32 10° SW 19:26:50 22° S 19:30:07 10° ESE visible
28 Oct 3.2 21:04:12 10° WSW 21:05:43 18° SW 21:05:43 18° SW visible
29 Oct 2.5 19:16:00 10° SW 19:19:26 25° S 19:22:53 10° ESE visible
29 Oct 2.9 20:56:52 10° WSW 20:58:51 21° SW 20:58:51 21° SW visible
30 Oct 2.4 19:08:32 10° SW 19:12:03 26° S 19:15:35 10° ESE visible
30 Oct 2.8 20:49:35 10° WSW 20:51:58 22° SSW 20:51:58 22° SSW visible
31 Oct 2.4 19:01:06 10° WSW 19:04:40 27° S 19:08:14 10° ESE visible
31 Oct 2.7 20:42:20 10° WSW 20:45:07 22° SSW 20:45:07 22° SSW visible
01 Nov 2.8 20:35:08 10° WSW 20:38:10 19° SSW 20:38:18 19° S visible
02 Nov 3.0 19:28:02 10° WSW 19:30:44 17° SSW 19:31:33 16° S visible
03 Nov 3.3 19:21:06 10° SW 19:23:17 14° SSW 19:24:53 12° S visible
